Vorticity
6 5 4 4 3 7 5 3 16 6 0 1 4 6 3 3 2 3 1 3 8 8 7 8 8 8 6 6 6 5 6 5 5 6 6 5 6 6 5 4 4 5 6
9 6 6 5 6 5 7 3 12 4 2 2 1 4 3 2 3 3 6 5 3 6 9 7 8 7 7 6 6 6 6 8 8 6 5 5 5 5 4 5 5 4 4
8 8 7 6 5 5 3 5 12 4 1 1 3 4 2 6 7 7 7 9 11 15 11 8 8 7 7 6 6 6 7 6 5 4 4 5 5 5 4 3 2 2 2
7 7 7 4 4 4 3 3 9 11 4 4 2 3 8 5 7 10 15 19 13 8 6 6 5 5 6 5 5 4 5 5 5 5 6 7 7 6 6 7 7 6 6
5 5 6 4 3 3 4 10 17 6 5 3 4 7 5 6 10 18 9 2 3 4 4 5 6 5 4 2 3 4 4 4 5 6 6 5 5 6 6 6 6 7 7
5 5 5 3 7 4 13 13 6 3 3 4 7 4 4 7 12 10 5 5 3 4 5 3 2 2 3 3 5 5 6 7 5 4 6 7 7 8 9 8 8 8 7
4 4 5 5 4 2 6 7 3 2 3 7 6 4 5 5 10 7 6 4 5 5 4 4 4 4 5 8 5 4 7 7 7 6 6 6 7 8 9 8 11 11 11
4 4 3 3 4 3 3 4 5 2 3 8 6 5 10 10 10 7 7 6 5 4 5 3 3 5 7 6 7 12 7 5 6 7 8 8 7 7 5 6 5 4 4
3 3 4 2 3 3 2 3 3 4 5 8 5 7 11 10 7 6 6 4 4 4 4 3 6 7 8 10 9 8 8 8 7 7 7 7 7 7 5 4 3 3 2
3 3 4 3 4 4 5 2 4 3 9 7 8 11 11 7 5 5 6 5 4 2 2 6 7 8 10 10 9 8 7 6 6 7 7 7 6 5 4 4 4 5 6
8 6 5 4 3 5 4 3 4 4 8 7 10 10 6 6 4 5 5 5 5 2 11 6 8 13 15 12 10 9 7 7 7 6 5 5 5 4 4 4 3 3 2
7 7 5 4 4 5 5 5 5 9 8 10 8 6 5 6 5 4 4 6 10 6 5 8 15 11 7 5 6 6 6 6 7 6 5 4 3 2 2 2 1 1 0
5 5 5 5 5 6 7 7 7 7 9 7 6 6 6 6 4 3 10 9 6 6 7 7 4 3 5 7 7 6 5 5 5 4 3 3 3 3 3 3 3 3 3
5 5 5 6 8 8 8 7 8 9 8 6 7 5 5 5 9 12 4 5 6 11 7 7 11 11 4 5 0 2 3 3 2 3 3 4 8 10 10 12 16 18 22
7 7 8 9 8 8 7 7 9 7 5 7 6 5 9 10 4 3 8 11 14 13 8 9 6 6 3 1 1 1 1 2 7 13 21 27 32 40 44 41 34 37 41
9 9 10 9 6 6 8 8 7 6 5 4 9 14 4 2 7 9 13 6 10 12 9 -1 -3 4 5 2 2 5 14 26 37 42 34 31 37 39 40 42 37 38 40
9 8 7 5 7 8 6 6 5 4 7 14 4 1 6 5 14 9 7 11 5 4 2 5 3 6 7 8 17 29 36 32 38 44 48 44 28 27 30 27 22 18 20
8 7 6 9 7 5 5 5 7 14 6 4 2 7 7 15 3 10 7 5 1 2 -0 -5 -5 2 16 26 41 32 43 41 34 23 18 10 19 27 25 12 19 19 17
7 7 8 5 5 5 5 11 6 4 3 6 5 9 10 7 10 5 5 2 1 0 -0 2 3 21 42 41 42 41 34 16 8 19 20 14 4 4 7 14 12 3 16
10 6 4 5 4 6 6 5 5 5 6 5 14 7 12 7 5 3 3 5 2 2 2 7 30 47 37 46 32 5 9 19 11 10 10 18 16 11 14 14 21 17 22
5 5 4 5 6 6 7 6 5 6 7 11 9 8 5 5 4 2 3 -2 4 4 16 33 42 36 40 18 3 28 13 17 16 14 14 8 11 12 10 18 13 16 28
5 4 4 6 6 6 6 7 5 10 8 13 5 6 3 6 3 1 -0 -0 9 29 40 33 36 38 10 13 24 8 20 15 15 8 5 18 9 17 15 5 7 22 13
4 5 7 6 7 7 6 7 10 9 9 5 6 4 5 1 1 4 -3 15 37 34 24 31 39 5 23 22 13 15 13 14 12 7 10 12 9 15 13 15 22 36 16
7 4 6 7 7 4 9 8 12 7 5 5 5 3 1 3 3 2 14 40 36 25 27 37 1 18 12 10 13 10 12 15 11 7 13 8 15 14 18 18 30 37 21
7 7 8 4 7 10 9 11 6 6 5 5 3 3 1 1 6 20 38 38 32 31 33 3 12 12 8 11 9 11 10 11 13 8 9 7 20 15 14 29 17 22 19
8 7 4 8 6 12 8 7 8 6 3 3 4 1 2 11 26 35 31 30 34 28 -0 19 20 6 5 6 4 6 7 7 8 12 3 10 19 19 28 8 5 10 10
Height
5809 5810 5809 5809 5808 5808 5807 5805 5802 5801 5799 5797 5797 5794 5793 5791 5788 5786 5784 5782 5779 5777 5774 5772 5771 5768 5767 5765 5764 5764 5762 5761 5760 5759 5758 5758 5757 5757 5757 5756 5756 5756 5756
5804 5803 5803 5803 5803 5802 5800 5798 5796 5794 5792 5791 5790 5788 5787 5784 5781 5778 5776 5773 5770 5768 5765 5763 5761 5760 5758 5756 5754 5754 5752 5750 5750 5749 5747 5746 5746 5745 5745 5744 5744 5743 5744
5797 5797 5797 5798 5797 5795 5793 5792 5789 5788 5785 5784 5782 5781 5780 5777 5773 5769 5766 5763 5760 5758 5756 5754 5753 5751 5749 5746 5744 5743 5741 5740 5737 5736 5735 5733 5733 5732 5731 5730 5730 5730 5730
5791 5791 5791 5791 5790 5789 5787 5785 5782 5781 5778 5776 5775 5773 5771 5768 5765 5761 5757 5754 5751 5749 5748 5745 5744 5741 5738 5736 5734 5731 5730 5728 5726 5723 5721 5719 5718 5717 5716 5714 5714 5714 5714
5785 5784 5784 5784 5783 5781 5780 5776 5775 5774 5771 5769 5767 5765 5762 5759 5755 5752 5748 5746 5743 5740 5737 5735 5733 5730 5727 5724 5721 5718 5716 5713 5710 5708 5706 5704 5703 5701 5699 5698 5696 5696 5697
5778 5778 5778 5777 5776 5774 5772 5769 5769 5767 5764 5761 5758 5756 5753 5749 5745 5742 5739 5737 5734 5730 5727 5723 5720 5718 5715 5711 5708 5704 5701 5698 5695 5692 5689 5687 5685 5683 5681 5680 5679 5678 5677
5772 5772 5771 5770 5768 5767 5765 5763 5761 5759 5757 5754 5749 5746 5744 5739 5736 5732 5729 5726 5722 5718 5714 5710 5706 5702 5699 5695 5692 5688 5684 5680 5677 5674 5670 5668 5666 5664 5661 5660 5659 5658 5658
5765 5765 5764 5762 5760 5759 5757 5755 5753 5750 5747 5744 5741 5738 5734 5729 5725 5721 5718 5714 5709 5705 5700 5695 5691 5686 5681 5678 5674 5670 5666 5662 5658 5654 5650 5647 5645 5642 5639 5638 5637 5636 5636
5757 5757 5756 5754 5753 5751 5749 5746 5743 5740 5737 5734 5731 5727 5724 5722 5719 5714 5708 5702 5696 5690 5685 5680 5674 5667 5662 5658 5654 5650 5645 5641 5637 5632 5628 5624 5622 5619 5616 5614 5612 5611 5611
5749 5748 5747 5746 5744 5742 5740 5737 5734 5730 5726 5722 5718 5715 5711 5708 5705 5705 5702 5696 5689 5682 5675 5667 5660 5652 5646 5641 5635 5630 5625 5620 5615 5610 5605 5600 5596 5592 5589 5587 5585 5584 5583
5741 5740 5739 5737 5735 5732 5730 5727 5724 5720 5716 5711 5707 5703 5698 5693 5688 5685 5684 5681 5676 5668 5661 5652 5644 5635 5627 5622 5617 5612 5606 5600 5594 5588 5582 5576 5570 5565 5561 5558 5555 5553 5551
5733 5732 5730 5728 5725 5723 5720 5716 5712 5708 5703 5699 5695 5690 5685 5681 5675 5669 5665 5661 5657 5652 5645 5635 5625 5617 5609 5603 5597 5591 5584 5578 5571 5564 5557 5550 5543 5536 5531 5526 5522 5518 5513
5724 5723 5721 5718 5716 5713 5709 5705 5700 5696 5691 5687 5682 5676 5671 5664 5659 5653 5648 5643 5638 5632 5623 5615 5606 5596 5588 5580 5572 5565 5558 5549 5541 5532 5523 5514 5506 5498 5493 5487 5482 5477 5472
5715 5714 5711 5709 5706 5702 5698 5694 5689 5684 5680 5675 5669 5663 5656 5649 5642 5635 5628 5622 5620 5615 5605 5595 5585 5573 5563 5553 5544 5534 5525 5514 5503 5492 5481 5471 5461 5452 5446 5439 5433 5427 5421
5707 5704 5702 5699 5696 5691 5687 5682 5678 5673 5667 5661 5655 5648 5641 5633 5626 5618 5609 5601 5593 5592 5592 5577 5563 5550 5537 5525 5514 5500 5486 5474 5460 5446 5434 5423 5413 5402 5396 5388 5384 5381 5375
5697 5695 5692 5689 5685 5680 5675 5671 5666 5661 5654 5647 5641 5633 5625 5618 5609 5599 5590 5582 5573 5566 5566 5553 5544 5526 5510 5494 5480 5461 5446 5429 5414 5399 5387 5380 5374 5367 5363 5358 5352 5345 5337
5688 5685 5682 5678 5674 5669 5665 5659 5653 5647 5640 5633 5626 5618 5609 5600 5591 5582 5572 5563 5553 5542 5537 5543 5520 5505 5485 5463 5446 5423 5401 5387 5377 5366 5359 5354 5349 5345 5340 5335 5329 5322 5314
5679 5675 5671 5667 5663 5658 5653 5647 5640 5634 5627 5619 5611 5602 5593 5584 5574 5564 5555 5544 5533 5519 5507 5504 5496 5476 5452 5432 5411 5395 5379 5364 5354 5350 5343 5336 5333 5328 5323 5317 5310 5302 5295
5669 5665 5661 5657 5652 5647 5641 5635 5627 5620 5612 5604 5595 5586 5577 5568 5559 5548 5537 5525 5512 5497 5480 5466 5462 5444 5422 5402 5389 5375 5365 5355 5346 5339 5330 5326 5320 5313 5308 5302 5295 5289 5282
5659 5655 5651 5647 5641 5635 5628 5622 5614 5606 5598 5588 5579 5570 5561 5551 5541 5529 5517 5504 5489 5473 5454 5436 5419 5407 5394 5382 5371 5363 5357 5344 5337 5328 5321 5316 5308 5300 5293 5285 5281 5275 5269
5649 5646 5641 5635 5629 5622 5616 5608 5601 5592 5583 5574 5565 5555 5545 5533 5521 5508 5494 5479 5461 5444 5426 5410 5396 5383 5373 5367 5359 5351 5344 5338 5326 5318 5312 5307 5298 5289 5280 5273 5264 5258 5254
5640 5635 5629 5623 5617 5610 5603 5595 5587 5578 5569 5560 5550 5539 5527 5515 5503 5489 5472 5455 5433 5411 5398 5386 5378 5369 5362 5355 5347 5341 5334 5328 5323 5309 5305 5300 5286 5281 5270 5262 5255 5248 5242
5629 5624 5618 5611 5605 5597 5589 5581 5572 5564 5554 5544 5534 5522 5511 5497 5482 5468 5452 5431 5411 5391 5376 5369 5365 5357 5351 5343 5338 5333 5326 5320 5312 5303 5298 5293 5278 5270 5259 5251 5242 5234 5228
5618 5612 5606 5599 5592 5584 5576 5567 5558 5549 5539 5529 5517 5504 5490 5476 5460 5444 5429 5411 5394 5377 5366 5358 5352 5347 5341 5335 5329 5323 5317 5314 5307 5296 5289 5281 5271 5259 5250 5241 5232 5225 5219
5607 5601 5594 5587 5579 5571 5562 5553 5545 5535 5525 5514 5499 5483 5469 5455 5437 5420 5403 5390 5378 5365 5356 5350 5344 5338 5331 5324 5318 5314 5310 5304 5300 5289 5281 5272 5263 5255 5245 5237 5229 5222 5218
5596 5589 5582 5575 5567 5559 5549 5540 5531 5521 5510 5497 5482 5464 5447 5430 5412 5396 5383 5374 5365 5356 5349 5341 5335 5329 5322 5316 5309 5303 5298 5294 5290 5285 5274 5267 5258 5253 5245 5237 5230 5223 5217